This is the latest recevied weather packets stored in our database for station/object N8XHB. If no packets are shown the sender has not sent any weather packets the latest 10 day(s).
| Time | Temp. | Humidity | Pressure | Rain* | Wind** | Luminosity | Snow |
|---|---|---|---|---|---|---|---|
| 1777378149 | 11.67° C | 83% | 1007.6 hPa | 0 mm | - | 18 W/m² | - |
| 1777377847 | 11.67° C | 83% | 1007.5 hPa | 0 mm | - | 22 W/m² | - |
| 1777377547 | 11.67° C | 84% | 1007.6 hPa | 0 mm | - | 28 W/m² | - |
| 1777377242 | 11.67° C | 84% | 1007.4 hPa | 0 mm | - | 21 W/m² | - |
| 1777376940 | 11.67° C | 84% | 1007.5 hPa | 0 mm | - | 17 W/m² | - |
| 1777376636 | 11.67° C | 83% | 1007.3 hPa | 0 mm | - | 14 W/m² | - |
| 1777376334 | 11.67° C | 83% | 1007.2 hPa | 0 mm | - | 11 W/m² | - |
| 1777376029 | 11.67° C | 83% | 1007.1 hPa | 0 mm | - | 8 W/m² | - |
| 1777375728 | 11.67° C | 83% | 1007.1 hPa | 0 mm | - | 8 W/m² | - |
| 1777375424 | 12.22° C | 82% | 1006.9 hPa | 0 mm | - | 5 W/m² | - |
| 1777375122 | 12.22° C | 83% | 1006.7 hPa | 0 mm | - | 5 W/m² | - |
| 1777374820 | 12.22° C | 83% | 1006.3 hPa | 0 mm | - | 4 W/m² | - |
| 1777374517 | 12.22° C | 83% | 1006.2 hPa | 0 mm | - | 3 W/m² | - |
| 1777374214 | 12.78° C | 83% | 1006.3 hPa | 0 mm | - | 2 W/m² | - |
| 1777373910 | 12.78° C | 83% | 1006.1 hPa | 0 mm | - | 2 W/m² | - |
| 1777373607 | 12.78° C | 83% | 1006 hPa | 0 mm | - | 1 W/m² | - |
| 1777373303 | 12.78° C | 84% | 1005.9 hPa | 0 mm | - | 1 W/m² | - |
| 1777372998 | 12.78° C | 85% | 1005.9 hPa | 0 mm | - | 1 W/m² | - |
| 1777372695 | 12.78° C | 84% | 1005.5 hPa | 0 mm | - | 0 W/m² | - |
| 1777372394 | 13.33° C | 84% | 1005.4 hPa | 0 mm | - | 0 W/m² | - |
| 1777372092 | 13.33° C | 85% | 1005.5 hPa | 0 mm | - | 0 W/m² | - |
| 1777371788 | 13.89° C | 84% | 1005.4 hPa | 0 mm | - | 0 W/m² | - |
| 1777371485 | 13.89° C | 84% | 1005.1 hPa | 0 mm | - | 0 W/m² | - |
| 1777371181 | 13.89° C | 84% | 1004.9 hPa | 0 mm | - | 0 W/m² | - |
| 1777370877 | 14.44° C | 86% | 1004.9 hPa | 0 mm | - | 0 W/m² | - |
* Rain latest hour (hover to see other rain measurements)
** Current wind speed in m/s (hover to see current wind gust speed)